Weather History for Lancaster, SC

Change the Weather History Date:

Friday, February 8, 2013

  Actual Average (KUZA) Record (KUZA)
Temperature  
Mean Temperature 50 °F -  
Max Temperature 60 °F 53 °F 73 °F (1965)
Min Temperature 39 °F 31 °F 14 °F (1951)
Degree Days  
Heating Degree Days 16    
Moisture  
Dew Point 42 °F    
Average Humidity 86    
Maximum Humidity 100    
Minimum Humidity 58    
Precipitation  
Precipitation 0.01 in - - ()
Sea Level Pressure  
Sea Level Pressure 29.94 in    
Wind  
Wind Speed 9 mph (NW)    
Max Wind Speed 15 mph    
Max Gust Speed 21 mph    
Visibility 10 miles    
Events Rain    
Averages and records for this station are not official NWS values.
T = Trace of Precipitation, MM = Missing Value Source: NWS Daily Summary

Daily Weather History Graph

Daily Weather History Graph

Search for Another Location

Airport:

Trip Planner

Search our weather history database for the weather conditions in past years. The results will help you decide how hot, cold, wet, or windy it might be!

Date:

Astronomy

Feb. 08, 2013 Rise Set
Actual Time 7:15 AM EST 5:59 PM EST
Civil Twilight 6:49 AM EST 6:26 PM EST
Nautical Twilight 6:19 AM EST 6:55 PM EST
Astronomical Twilight 5:50 AM EST 7:25 PM EST
Moon 5:41 AM EST (2/8) 4:32 PM EST (2/8)
Length of Visible Light 11h 36m
Length of Day
10h 44m
Waning Crescent, 3% of the Moon is Illuminated
Feb 8
Waning Crescent
Feb 10
New
Feb 17
First Quarter
Feb 25
Full
Mar 4
Last Quarter

Hourly Weather History & Observations

Time (EST) Temp. Windchill Dew Point Humidity Pressure Visibility Wind Dir Wind Speed Gust Speed Precip Events Conditions
12:15 AM 41.0 °F 33.5 °F 41.0 °F 100% 29.93 in 9.0 mi North 13.8 mph - 0.01 in Rain Light Rain
12:35 AM 41.0 °F 34.3 °F 41.0 °F 100% 29.92 in 10.0 mi North 11.5 mph 20.7 mph 0.01 in Rain Light Rain
12:55 AM 41.0 °F 33.5 °F 41.0 °F 100% 29.92 in 9.0 mi North 13.8 mph 19.6 mph 0.01 in Rain Light Rain
1:15 AM 41.0 °F 35.2 °F 41.0 °F 100% 29.92 in 10.0 mi North 9.2 mph 18.4 mph N/A Rain Light Rain
1:35 AM 41.0 °F 33.5 °F 41.0 °F 100% 29.91 in 10.0 mi North 13.8 mph 20.7 mph N/A Rain Light Rain
1:55 AM 41.0 °F 33.1 °F 41.0 °F 100% 29.89 in 10.0 mi NNE 15.0 mph - N/A Rain Light Rain
2:15 AM 42.8 °F 36.2 °F 42.8 °F 100% 29.88 in 10.0 mi North 12.7 mph 17.3 mph N/A Rain Light Rain
2:35 AM 44.6 °F 38.8 °F 44.6 °F 100% 29.88 in 10.0 mi NNE 11.5 mph 18.4 mph N/A Rain Light Rain
2:55 AM 44.6 °F 38.8 °F 44.6 °F 100% 29.87 in 9.0 mi NNE 11.5 mph 19.6 mph N/A Rain Light Rain
3:15 AM 42.8 °F 37.0 °F 42.8 °F 100% 29.87 in 10.0 mi NNE 10.4 mph 17.3 mph N/A Rain Light Rain
3:35 AM 41.0 °F 36.4 °F 41.0 °F 100% 29.88 in 10.0 mi North 6.9 mph - N/A Rain Light Rain
3:55 AM 42.8 °F 38.0 °F 42.8 °F 100% 29.89 in 10.0 mi NNW 8.1 mph - N/A Rain Light Rain
4:15 AM 41.0 °F 36.4 °F 41.0 °F 100% 29.90 in 10.0 mi NNW 6.9 mph - N/A Rain Light Rain
4:55 AM 41.0 °F 37.1 °F 41.0 °F 100% 29.90 in 10.0 mi NNW 5.8 mph - N/A Rain Light Rain
5:15 AM 41.0 °F 35.8 °F 41.0 °F 100% 29.89 in 10.0 mi North 8.1 mph - N/A Rain Light Rain
5:35 AM 41.0 °F 35.8 °F 41.0 °F 100% 29.90 in 10.0 mi NNW 8.1 mph - N/A Rain Light Rain
5:55 AM 41.0 °F 35.8 °F 41.0 °F 100% 29.90 in 10.0 mi North 8.1 mph - N/A Rain Light Rain
6:15 AM 41.0 °F 36.4 °F 41.0 °F 100% 29.90 in 10.0 mi NW 6.9 mph - N/A Rain Light Rain
6:35 AM 39.2 °F 34.2 °F 39.2 °F 100% 29.90 in 10.0 mi North 6.9 mph - N/A Rain Light Rain
6:55 AM 39.2 °F 33.6 °F 39.2 °F 100% 29.91 in 10.0 mi North 8.1 mph - N/A Rain Light Rain
7:15 AM 39.2 °F 35.0 °F 39.2 °F 100% 29.91 in 10.0 mi NNW 5.8 mph - N/A Rain Light Rain
7:35 AM 39.2 °F 34.2 °F 39.2 °F 100% 29.92 in 10.0 mi North 6.9 mph - N/A Rain Light Rain
7:55 AM 39.2 °F 34.2 °F 39.2 °F 100% 29.92 in 10.0 mi North 6.9 mph - N/A Rain Light Rain
8:15 AM 41.0 °F 37.1 °F 41.0 °F 100% 29.94 in 10.0 mi NNW 5.8 mph - N/A Rain Light Rain
8:35 AM 41.0 °F 36.4 °F 41.0 °F 100% 29.94 in 10.0 mi North 6.9 mph - N/A Rain Light Rain
8:55 AM 41.0 °F 37.1 °F 41.0 °F 100% 29.94 in 10.0 mi NNW 5.8 mph - N/A Rain Light Rain
9:15 AM 41.0 °F 36.4 °F 41.0 °F 100% 29.96 in 10.0 mi NNW 6.9 mph - N/A Rain Light Rain
9:35 AM 41.0 °F 37.1 °F 41.0 °F 100% 29.96 in 10.0 mi NW 5.8 mph - N/A Rain Light Rain
9:55 AM 41.0 °F 37.1 °F 41.0 °F 100% 29.97 in 10.0 mi West 5.8 mph - N/A Rain Light Rain
10:15 AM 41.0 °F 37.1 °F 41.0 °F 100% 29.97 in 10.0 mi WNW 5.8 mph - N/A Rain Light Rain
10:35 AM 41.0 °F 36.4 °F 41.0 °F 100% 29.98 in 10.0 mi West 6.9 mph - N/A Rain Light Rain
10:55 AM 42.8 °F 40.1 °F 42.8 °F 100% 29.97 in 10.0 mi West 4.6 mph - N/A Rain Light Rain
11:15 AM 44.6 °F 43.1 °F 42.8 °F 93% 29.97 in 10.0 mi West 3.5 mph - N/A Rain Light Rain
11:35 AM 44.6 °F 42.2 °F 42.8 °F 93% 29.95 in 10.0 mi WSW 4.6 mph - N/A Rain Light Rain
11:55 AM 46.4 °F 43.5 °F 44.6 °F 93% 29.95 in 10.0 mi West 5.8 mph - N/A Rain Light Rain
12:15 PM 50.0 °F - 44.6 °F 82% 29.94 in 10.0 mi WSW 5.8 mph - N/A Rain Light Rain
12:35 PM 53.6 °F - 44.6 °F 72% 29.93 in 10.0 mi WSW 6.9 mph - N/A Rain Light Rain
12:55 PM 53.6 °F - 44.6 °F 72% 29.92 in 10.0 mi WSW 6.9 mph - N/A Rain Light Rain
1:15 PM 55.4 °F - 44.6 °F 67% 29.91 in 10.0 mi West 11.5 mph 18.4 mph N/A Rain Light Rain
1:35 PM 57.2 °F - 46.4 °F 67% 29.90 in 10.0 mi West 9.2 mph 16.1 mph N/A Rain Light Rain
1:55 PM 59.0 °F - 46.4 °F 63% 29.89 in 10.0 mi West 9.2 mph - N/A Rain Light Rain
2:15 PM 59.0 °F - 46.4 °F 63% 29.88 in 10.0 mi WSW 11.5 mph - N/A Rain Light Rain
2:35 PM 60.8 °F - 46.4 °F 59% 29.88 in 10.0 mi West 12.7 mph 17.3 mph N/A Rain Light Rain
2:55 PM 59.0 °F - 46.4 °F 63% 29.88 in 10.0 mi WSW 11.5 mph - N/A Rain Light Rain
3:15 PM 59.0 °F - 46.4 °F 63% 29.88 in 10.0 mi West 11.5 mph 17.3 mph N/A Rain Light Rain
3:35 PM 59.0 °F - 46.4 °F 63% 29.88 in 10.0 mi West 10.4 mph - N/A Rain Light Rain
3:55 PM 59.0 °F - 46.4 °F 63% 29.88 in 10.0 mi West 12.7 mph 17.3 mph N/A Rain Light Rain
4:15 PM 60.8 °F - 46.4 °F 59% 29.89 in 10.0 mi West 9.2 mph - N/A Rain Light Rain
4:35 PM 59.0 °F - 46.4 °F 63% 29.89 in 10.0 mi West 6.9 mph - N/A Rain Light Rain
4:55 PM 59.0 °F - 46.4 °F 63% 29.90 in 10.0 mi West 8.1 mph - N/A Rain Light Rain
5:15 PM 59.0 °F - 46.4 °F 63% 29.91 in 10.0 mi West 12.7 mph - N/A Rain Light Rain
5:35 PM 57.2 °F - 46.4 °F 67% 29.92 in 10.0 mi West 5.8 mph - N/A Rain Light Rain
6:15 PM 55.4 °F - 41.0 °F 58% 29.94 in 10.0 mi West 6.9 mph - N/A Rain Light Rain
6:35 PM 53.6 °F - 39.2 °F 58% 29.95 in 10.0 mi Calm Calm - N/A Rain Light Rain
6:55 PM 50.0 °F - 41.0 °F 71% 29.96 in 10.0 mi Calm Calm - N/A Rain Light Rain
7:15 PM 46.4 °F - 42.8 °F 87% 29.97 in 10.0 mi Calm Calm - N/A Rain Light Rain
7:35 PM 44.6 °F - 42.8 °F 93% 29.98 in 10.0 mi Calm Calm - N/A Rain Light Rain
7:55 PM 42.8 °F - 42.8 °F 100% 29.99 in 10.0 mi Calm Calm - N/A Rain Light Rain
8:15 PM 41.0 °F - 41.0 °F 100% 29.99 in 10.0 mi Calm Calm - N/A Rain Light Rain
8:35 PM 41.0 °F - 41.0 °F 100% 30.01 in 10.0 mi Calm Calm - N/A Rain Light Rain
8:55 PM 44.6 °F 43.1 °F 37.4 °F 76% 30.02 in 10.0 mi WNW 3.5 mph - N/A Rain Light Rain
9:15 PM 44.6 °F 43.1 °F 37.4 °F 76% 30.02 in 10.0 mi WNW 3.5 mph - N/A Rain Light Rain
9:35 PM 44.6 °F 41.4 °F 35.6 °F 71% 30.03 in 10.0 mi WNW 5.8 mph - N/A Rain Light Rain
9:55 PM 44.6 °F 43.1 °F 35.6 °F 71% 30.05 in 10.0 mi NW 3.5 mph - N/A Rain Light Rain
10:15 PM 44.6 °F - 33.8 °F 66% 30.06 in 10.0 mi Calm Calm - N/A Rain Light Rain
10:35 PM 39.2 °F 35.9 °F 35.6 °F 87% 30.07 in 10.0 mi WNW 4.6 mph - N/A Rain Light Rain
10:55 PM 41.0 °F 39.0 °F 33.8 °F 76% 30.09 in 10.0 mi WNW 3.5 mph - N/A Rain Light Rain
11:15 PM 39.2 °F 35.0 °F 35.6 °F 87% 30.09 in 10.0 mi North 5.8 mph - N/A Rain Light Rain
11:35 PM 42.8 °F 38.6 °F 32.0 °F 66% 30.09 in 10.0 mi North 6.9 mph - N/A Rain Light Rain
11:55 PM 42.8 °F 38.6 °F 32.0 °F 66% 30.10 in 10.0 mi North 6.9 mph - N/A Rain Light Rain